Wind_Speed
44 44 45 45 44 45 45 45 45 45 45 45 46 46 46 46 46 46 45 46 46 46 46 45 46 46 46 46 47 47 47 48 48 48 49 49 49 50
44 45 45 45 44 45 45 45 45 45 45 45 45 45 46 46 45 45 45 45 45 45 45 45 46 46 47 48 48 48 49 49 50 50 50 51 51 52
44 44 44 44 44 44 45 45 45 45 45 44 44 44 44 45 45 45 46 46 45 45 45 45 46 47 48 49 49 50 50 50 49 50 52 52 53 54
44 44 44 44 45 45 46 46 45 45 45 43 42 43 43 44 45 45 45 46 46 46 46 46 47 48 49 49 49 49 50 51 51 52 52 53 54 54
44 44 44 44 44 44 44 44 44 44 43 42 42 42 43 44 44 45 45 46 47 47 46 47 48 48 49 49 49 49 50 51 52 53 54 54 54 54
43 43 43 43 43 43 43 43 43 43 43 42 42 43 43 44 44 45 46 47 46 46 46 47 47 48 48 49 50 50 51 52 52 53 54 54 54 54
44 43 43 43 43 43 43 43 43 43 44 44 44 44 44 45 45 45 46 45 45 46 46 46 47 48 49 50 50 51 52 52 53 53 53 53 53 53
44 44 44 44 44 44 44 44 44 44 45 45 45 45 45 45 45 45 45 45 46 46 46 46 47 48 49 50 51 51 51 51 52 52 51 51 52 52
46 45 45 45 45 45 45 45 45 45 46 46 46 46 45 45 45 45 45 46 46 46 47 47 47 48 49 49 50 50 50 51 51 51 51 51 50 51
46 46 45 45 45 45 46 46 46 46 46 46 45 44 44 44 45 46 46 47 46 46 47 48 48 49 49 49 49 49 49 50 50 50 50 50 50 50
45 46 45 45 45 45 45 45 45 45 45 44 44 44 44 44 45 45 46 46 46 46 46 47 48 48 47 47 47 47 48 48 48 48 48 49 49 49
45 45 45 45 45 44 44 44 44 44 43 43 44 43 43 44 44 44 45 45 45 45 44 45 45 45 44 44 45 45 46 46 45 46 46 46 47 48
43 44 44 43 43 43 42 42 42 42 42 43 43 42 42 42 42 42 42 43 43 42 43 43 43 43 43 43 44 45 45 45 45 45 45 46 47 47
42 41 41 41 40 40 40 40 40 40 41 41 41 41 41 41 40 40 41 41 41 42 42 42 42 42 42 42 43 43 44 44 44 44 45 46 46 46
39 38 38 38 39 39 39 38 38 38 39 39 39 39 39 39 39 39 39 39 41 41 41 42 42 42 42 42 42 42 43 43 44 44 44 44 44 44
37 37 37 37 37 38 38 38 37 37 36 37 37 37 37 38 39 39 39 39 40 39 39 40 40 40 40 41 41 41 42 42 42 43 42 42 43 43
35 35 35 36 36 36 37 36 36 35 35 35 35 36 37 37 38 38 38 38 39 39 39 39 38 38 39 40 40 40 40 41 41 40 40 41 41 41
34 34 35 35 35 35 35 35 35 35 35 35 34 35 35 36 37 37 37 37 37 37 37 37 37 37 38 38 39 39 39 39 39 39 39 39 39 40
34 34 34 34 34 34 34 34 34 34 34 33 33 34 34 35 36 36 36 36 36 36 36 37 37 36 37 37 37 38 38 38 38 38 38 38 38 39
33 33 33 33 33 33 33 33 33 34 34 33 33 34 34 34 35 35 35 35 36 36 36 36 36 36 36 36 36 37 37 37 37 37 37 37 38 37
32 32 32 32 31 32 32 32 33 33 34 34 34 34 34 33 34 34 34 34 35 35 35 35 35 36 36 36 36 36 36 36 36 36 36 36 36 35
30 30 29 30 30 31 31 31 32 32 33 33 33 33 33 33 33 33 33 33 33 33 33 34 34 34 34 34 34 35 35 35 35 35 35 35 35 34
28 28 28 28 29 29 29 30 31 31 31 32 32 32 32 32 32 32 32 32 32 32 32 32 33 33 32 33 33 34 34 34 34 34 34 33 33 33
Wind_Direction
261 262 261 262 262 262 262 263 265 265 265 266 266 266 267 267 268 268 268 268 268 268 269 270 269 269 269 270 271 271 272 272 272 273 272 272 273 272
261 263 263 263 262 262 262 263 264 265 266 266 266 267 267 268 268 267 267 268 268 269 270 271 270 270 271 271 272 272 272 272 273 272 272 272 271 272
261 262 263 263 262 262 262 264 265 265 266 266 267 268 268 269 268 268 267 268 268 269 270 271 271 271 272 273 274 274 273 273 274 274 273 272 272 273
261 262 263 264 264 264 264 265 266 266 266 267 267 268 268 268 268 268 267 267 268 269 270 271 272 272 272 274 275 274 274 274 274 274 273 273 274 274
262 262 263 264 264 265 265 266 266 266 266 266 267 268 269 269 268 268 268 268 269 269 270 270 272 272 273 274 274 275 276 276 275 275 274 274 274 274
263 263 263 264 264 265 265 266 266 266 266 267 268 270 270 271 270 270 270 270 269 269 270 271 272 272 272 273 273 274 275 276 276 276 275 275 274 273
262 263 263 263 264 264 265 265 265 266 267 268 270 271 272 271 271 271 271 271 269 269 270 271 272 272 273 274 275 276 276 277 277 277 277 276 275 273
262 263 263 263 263 264 264 265 265 266 267 268 271 273 273 272 272 271 271 271 270 269 270 271 273 274 274 276 276 276 276 277 277 277 277 276 276 274
262 262 263 263 263 263 264 265 265 268 269 269 270 271 271 271 271 271 271 271 271 270 270 272 273 274 276 276 276 276 277 277 277 277 278 277 277 275
262 262 262 262 263 264 264 264 266 268 269 270 271 271 271 271 271 271 271 272 271 271 272 272 273 274 275 276 276 277 278 278 278 278 278 277 277 275
261 262 262 262 263 264 264 265 266 267 268 269 270 270 270 271 271 272 272 272 271 272 272 274 274 274 274 275 276 277 278 277 277 278 278 277 277 276
261 261 263 263 263 263 264 266 267 266 266 267 268 269 270 271 271 272 273 273 273 273 273 275 275 274 273 275 277 278 278 278 278 278 278 279 279 277
261 261 262 262 263 263 264 265 265 265 266 267 267 268 270 271 271 272 273 274 274 273 274 274 275 275 275 276 277 278 278 279 279 279 279 280 280 279
259 259 259 260 261 261 262 264 265 265 265 266 267 268 269 269 270 272 272 273 273 273 274 274 275 276 276 277 278 278 278 279 279 280 280 281 281 281
258 258 258 259 260 260 261 263 265 266 266 266 267 267 267 268 270 271 272 272 273 274 274 273 274 276 277 278 279 279 279 279 280 281 281 282 282 282
256 257 258 258 259 260 261 263 264 265 267 267 268 268 268 268 269 271 272 273 274 273 274 274 274 276 277 278 279 280 280 281 281 281 282 282 283 283
256 256 257 258 259 260 261 262 263 264 266 268 268 268 269 269 270 271 272 273 274 274 275 275 275 275 276 278 279 281 282 282 282 282 282 283 284 283
255 256 257 257 258 259 260 261 263 264 266 267 268 269 269 269 269 270 272 273 274 275 275 276 276 277 277 278 280 282 283 283 283 283 283 283 284 283
255 256 256 256 257 258 259 261 262 263 265 266 267 268 269 269 270 271 272 273 274 275 275 276 277 277 278 279 280 281 282 283 284 283 284 285 285 284
254 255 256 256 257 258 260 261 262 264 265 266 268 269 270 270 271 272 273 274 274 274 275 277 277 277 279 280 280 281 282 283 284 284 285 286 286 286
254 255 255 255 256 258 261 263 264 265 265 266 268 269 270 270 272 272 273 274 275 275 275 276 278 278 278 279 280 281 283 283 284 285 286 287 287 286
252 253 254 255 257 260 262 263 264 265 266 267 269 269 269 270 272 273 274 274 275 276 276 277 278 278 279 279 280 281 283 284 285 286 286 287 287 286
251 252 255 258 260 261 262 264 265 265 266 268 269 270 270 272 274 275 274 274 276 277 276 277 278 279 279 280 281 282 283 284 286 287 289 289 288 289
Height
5693 5694 5695 5696 5697 5699 5700 5701 5702 5703 5704 5704 5704 5704 5704 5704 5704 5704 5704 5704 5704 5704 5704 5704 5704 5704 5703 5703 5703 5704 5703 5703 5703 5703 5703 5702 5702 5702
5682 5682 5683 5685 5685 5687 5688 5689 5689 5690 5692 5693 5693 5693 5692 5692 5692 5691 5692 5692 5692 5692 5692 5692 5692 5692 5691 5691 5691 5691 5691 5691 5691 5690 5690 5689 5689 5688
5670 5671 5672 5673 5673 5675 5676 5677 5677 5678 5679 5681 5681 5681 5681 5681 5680 5680 5680 5680 5681 5681 5681 5680 5680 5680 5679 5679 5678 5678 5678 5678 5677 5677 5676 5676 5675 5675
5659 5659 5660 5661 5662 5663 5664 5665 5666 5667 5667 5669 5669 5669 5670 5669 5669 5669 5669 5669 5669 5669 5669 5668 5668 5668 5667 5666 5665 5665 5665 5664 5664 5663 5663 5663 5662 5660
5647 5648 5649 5649 5651 5652 5652 5653 5654 5655 5656 5657 5658 5658 5658 5657 5657 5657 5657 5657 5657 5657 5656 5656 5656 5655 5655 5654 5653 5652 5652 5651 5650 5649 5648 5647 5646 5645
5635 5636 5637 5639 5640 5641 5641 5642 5643 5644 5644 5645 5646 5646 5646 5645 5645 5645 5645 5645 5645 5644 5644 5644 5643 5643 5642 5641 5640 5640 5639 5637 5636 5634 5633 5632 5631 5630
5624 5625 5626 5627 5628 5629 5630 5631 5632 5632 5633 5633 5634 5634 5634 5634 5634 5633 5633 5632 5632 5632 5632 5632 5631 5630 5629 5628 5627 5626 5625 5623 5621 5620 5618 5617 5616 5615
5613 5614 5615 5616 5617 5618 5619 5619 5620 5621 5621 5621 5622 5622 5621 5621 5621 5620 5620 5620 5620 5621 5619 5619 5618 5617 5616 5615 5614 5612 5610 5609 5607 5605 5604 5602 5601 5601
5601 5602 5603 5604 5605 5606 5607 5607 5608 5608 5609 5609 5609 5609 5609 5609 5608 5608 5607 5607 5607 5607 5606 5606 5605 5604 5603 5601 5600 5598 5596 5594 5593 5591 5589 5588 5587 5586
5589 5590 5591 5592 5593 5594 5595 5595 5596 5596 5596 5596 5597 5596 5596 5595 5595 5595 5594 5594 5594 5594 5593 5592 5592 5590 5589 5587 5585 5584 5582 5580 5578 5577 5575 5574 5573 5572
5576 5578 5579 5580 5581 5581 5582 5583 5583 5584 5583 5583 5583 5583 5583 5583 5582 5582 5582 5581 5581 5581 5580 5579 5578 5576 5575 5574 5572 5570 5568 5567 5565 5563 5561 5560 5559 5558
5563 5564 5566 5567 5567 5568 5569 5570 5570 5571 5571 5571 5571 5571 5571 5571 5570 5570 5569 5569 5568 5568 5567 5566 5565 5563 5563 5562 5560 5558 5556 5554 5552 5550 5549 5547 5545 5544
5550 5552 5553 5554 5555 5556 5556 5557 5558 5558 5559 5559 5559 5559 5559 5559 5558 5558 5557 5557 5556 5556 5556 5554 5553 5551 5550 5550 5549 5546 5544 5542 5540 5538 5536 5535 5533 5531
5538 5539 5540 5542 5543 5544 5544 5545 5546 5546 5547 5547 5547 5548 5548 5547 5547 5546 5545 5544 5544 5544 5543 5542 5541 5540 5539 5538 5537 5535 5532 5530 5528 5526 5524 5522 5520 5519
5526 5527 5529 5530 5531 5532 5533 5534 5535 5535 5535 5535 5536 5536 5536 5536 5536 5535 5534 5533 5533 5532 5531 5530 5530 5529 5527 5526 5525 5523 5521 5519 5516 5514 5512 5510 5508 5507
5515 5517 5518 5519 5520 5522 5522 5523 5524 5524 5524 5525 5525 5525 5525 5525 5525 5524 5524 5523 5522 5521 5520 5519 5518 5517 5516 5514 5513 5511 5509 5507 5505 5502 5501 5499 5496 5494
5504 5506 5508 5509 5510 5511 5512 5513 5513 5514 5514 5514 5514 5514 5514 5514 5514 5514 5513 5512 5512 5511 5509 5508 5507 5506 5505 5503 5501 5499 5497 5496 5493 5491 5489 5487 5485 5482
5495 5496 5497 5499 5500 5501 5502 5502 5503 5503 5504 5504 5504 5504 5504 5504 5503 5503 5502 5501 5501 5500 5499 5498 5496 5495 5494 5492 5490 5488 5486 5485 5483 5480 5478 5476 5474 5471
5485 5486 5488 5489 5490 5491 5492 5492 5493 5493 5493 5493 5494 5494 5494 5493 5493 5492 5492 5491 5490 5489 5488 5487 5486 5485 5484 5482 5480 5477 5476 5474 5472 5470 5467 5465 5463 5461
5475 5477 5478 5479 5480 5481 5482 5482 5483 5483 5484 5484 5484 5484 5483 5483 5482 5482 5481 5480 5480 5479 5478 5477 5476 5474 5473 5472 5470 5468 5465 5463 5461 5459 5457 5454 5452 5450
5466 5467 5469 5470 5471 5472 5472 5473 5473 5473 5474 5474 5474 5474 5473 5473 5472 5472 5471 5470 5469 5468 5468 5467 5465 5464 5462 5461 5460 5458 5455 5453 5451 5449 5446 5444 5442 5440
5457 5458 5460 5461 5461 5462 5463 5463 5463 5464 5464 5464 5464 5464 5463 5463 5463 5462 5461 5460 5459 5458 5458 5457 5455 5454 5453 5452 5450 5448 5446 5443 5441 5438 5436 5434 5432 5431
5449 5450 5451 5452 5453 5453 5453 5454 5454 5454 5454 5454 5454 5454 5454 5453 5453 5452 5451 5451 5450 5449 5448 5447 5446 5445 5443 5442 5440 5438 5436 5434 5432 5429 5427 5424 5423 5421